Torna al catalogo

DELTA 1 DEB

AttivoUNKNOWN
NORAD 40752·DEBRIS·🇺🇸 United States

Lanciato Jul 29, 1976 da Vandenberg Space Force Base

Loading…

Prossimi Passaggi (prossime 24 ore)

TLE

AggiornatoSource: Space-Track

Epoca: Sep 14, 2026, 03:17 UTC

1 40752U 76077FV  26257.13744225 -.00000002  00000-0  58825-3 0  9999
2 40752 102.2204 315.4170 0564276 347.9515  33.9283 11.37645304532110

Traccia DELTA 1 DEB in tempo reale con AllMySat

Download on the App Store